Torna al catalogo

NOAA 16 DEB

AttivoPO
NORAD 41072·DEBRIS·🇺🇸 United States

Lanciato Sep 21, 2000 da Vandenberg Space Force Base

Loading…

Prossimi Passaggi (prossime 24 ore)

TLE

AggiornatoSource: Space-Track

Epoca: Sep 14, 2026, 02:49 UTC

1 41072U 00055AF  26257.11740652  .00000292  00000-0  37375-3 0  9993
2 41072  98.8269 314.8418 0283153 248.3279 108.7490 13.54831526533439

Traccia NOAA 16 DEB in tempo reale con AllMySat

Download on the App Store